TimeCST,TemperatureF,Dew PointF,Humidity,Sea Level PressureIn,VisibilityMPH,Wind Direction,Wind SpeedMPH,Gust SpeedMPH,PrecipitationIn,Events,Conditions,WindDirDegrees,DateUTC
12:52 AM,35.1,25.0,67,30.05,10.0,Calm,Calm,-,N/A,,Clear,0,2013-02-23 06:52:00
1:52 AM,30.0,24.1,79,30.04,10.0,ESE,3.5,-,N/A,,Clear,120,2013-02-23 07:52:00
2:52 AM,33.1,24.1,70,30.01,10.0,Variable,3.5,-,N/A,,Clear,0,2013-02-23 08:52:00
3:52 AM,28.0,23.0,81,30.00,10.0,South,6.9,-,N/A,,Clear,180,2013-02-23 09:52:00
4:52 AM,28.0,23.0,81,29.99,10.0,SSE,5.8,-,N/A,,Clear,160,2013-02-23 10:52:00
5:52 AM,28.9,24.1,82,30.00,10.0,Variable,3.5,-,N/A,,Clear,0,2013-02-23 11:52:00
6:52 AM,26.1,21.9,84,30.03,10.0,Calm,Calm,-,N/A,,Partly Cloudy,0,2013-02-23 12:52:00
7:52 AM,32.0,26.1,79,30.06,10.0,South,4.6,-,N/A,,Overcast,190,2013-02-23 13:52:00
8:52 AM,35.1,28.0,76,30.07,10.0,SW,3.5,-,N/A,,Clear,220,2013-02-23 14:52:00
9:52 AM,39.9,27.0,60,30.06,10.0,Variable,4.6,-,N/A,,Clear,0,2013-02-23 15:52:00
10:52 AM,46.9,28.9,50,30.04,10.0,Calm,Calm,-,N/A,,Clear,0,2013-02-23 16:52:00
11:52 AM,51.1,28.0,41,30.01,10.0,SW,5.8,-,N/A,,Clear,220,2013-02-23 17:52:00
12:52 PM,54.0,27.0,35,29.96,10.0,Variable,3.5,-,N/A,,Clear,0,2013-02-23 18:52:00
1:52 PM,57.9,25.0,28,29.93,10.0,Variable,4.6,16.1,N/A,,Clear,0,2013-02-23 19:52:00
2:52 PM,61.0,18.0,19,29.89,10.0,West,11.5,-,N/A,,Clear,270,2013-02-23 20:52:00
3:52 PM,61.0,18.0,19,29.87,10.0,WSW,3.5,-,N/A,,Clear,250,2013-02-23 21:52:00
4:52 PM,63.0,16.0,16,29.86,10.0,West,8.1,-,N/A,,Clear,260,2013-02-23 22:52:00
5:52 PM,61.0,17.1,18,29.85,10.0,Calm,Calm,-,N/A,,Clear,0,2013-02-23 23:52:00
6:52 PM,55.0,18.0,23,29.86,10.0,SE,6.9,-,N/A,,Clear,140,2013-02-24 00:52:00
7:52 PM,46.0,21.9,39,29.86,10.0,SSE,9.2,-,N/A,,Clear,150,2013-02-24 01:52:00
8:52 PM,45.0,21.0,39,29.87,10.0,SSE,8.1,-,N/A,,Clear,150,2013-02-24 02:52:00
9:52 PM,45.0,21.0,39,29.85,10.0,SSE,9.2,-,N/A,,Clear,150,2013-02-24 03:52:00
10:52 PM,46.9,21.9,37,29.83,10.0,SSE,16.1,-,N/A,,Clear,160,2013-02-24 04:52:00
11:52 PM,46.9,23.0,39,29.80,10.0,SSE,13.8,-,N/A,,Clear,150,2013-02-24 05:52:00